Tracking 22130 objects as of 21-Jan-2021
HD Live streaming from Space Station
objects crossing your sky now

STARLINK-1109

Track STARLINK-1109 now!
10-day predictions
STARLINK-1109 is classified as:


NORAD ID: 44945
Int'l Code: 2020-001AH
Perigee: 553.9 km
Apogee: 554.9 km
Inclination: 53.0 °
Period: 95.6 minutes
Semi major axis: 6925 km
RCS: Unknown
Launch date: January 7, 2020
Source: United States (US)
Launch site: AIR FORCE EASTERN TEST RANGE (AFETR)
aabbcc
Your satellite tracking list
Your tracking list is empty




NASA's NSSDC Master Catalog

Two Line Element Set (TLE):
1 44945U 20001AH  21021.47190984  .00001955  00000-0  15014-3 0  9991
2 44945  53.0198  95.7888 0000676 113.9688 246.1371 15.06386871 57780
Source of the keplerian elements: AFSPC